When you browse on this site, cookies collect data to enhance your experience and personalize the content and advertising you see.
Visit our Privacy Policy to learn more. By continuing to use the site, you agree to this use of cookies and data.
  • In Sweden
  • List of Countries
  • For 7 days
  • Water Temperature
  • Satellite Maps
  • Weather Map
  • Weather Widgets
  • user-avatar
    Login

    Hourly Weather Andreevka

    Today, 23 April, Tuesday

    Time Temperature Precipitation Wind Pressure Humidity
    00:00 +4°C° 0 mm 2 mps 738 mmHg 62%
    01:00 +4°C° 0 mm 2 mps 738 mmHg 63%
    02:00 +4°C° 0 mm 2 mps 737 mmHg 63%
    03:00 +4°C° 0 mm 2 mps 737 mmHg 64%
    04:00 +4°C° 0 mm 2 mps 737 mmHg 62%
    05:00 +4°C° 0 mm 3 mps 737 mmHg 61%
    06:00 +5°C° 0 mm 3 mps 737 mmHg 59%
    07:00 +6°C° 0 mm 4 mps 737 mmHg 58%
    08:00 +7°C° 0 mm 4 mps 736 mmHg 53%
    09:00 +10°C° 0 mm 4 mps 736 mmHg 49%
    10:00 +12°C° 0 mm 5 mps 736 mmHg 43%
    11:00 +12°C° 0.1 mm 5 mps 736 mmHg 44%
    12:00 +12°C° 0.1 mm 5 mps 736 mmHg 45%
    13:00 +12°C° 0.1 mm 5 mps 735 mmHg 45%
    14:00 +12°C° 0.1 mm 5 mps 735 mmHg 43%
    15:00 +13°C° 0.1 mm 5 mps 735 mmHg 41%
    16:00 +13°C° 0.1 mm 5 mps 735 mmHg 38%
    17:00 +13°C° 0 mm 4 mps 735 mmHg 40%
    18:00 +12°C° 0 mm 3 mps 735 mmHg 42%
    19:00 +11°C° 0 mm 3 mps 735 mmHg 44%
    20:00 +11°C° 0 mm 3 mps 735 mmHg 47%
    21:00 +10°C° 0 mm 3 mps 735 mmHg 50%
    22:00 +9°C° 0 mm 3 mps 735 mmHg 53%
    23:00 +9°C° 0 mm 3 mps 734 mmHg 55%

    Tomorrow, 24 April, Wednesday

    Time Temperature Precipitation Wind Pressure Humidity
    00:00 +8°C° 0 mm 3 mps 734 mmHg 57%
    01:00 +8°C° 0 mm 3 mps 734 mmHg 59%
    02:00 +7°C° 0 mm 3 mps 734 mmHg 62%
    03:00 +7°C° 0 mm 3 mps 734 mmHg 64%
    04:00 +5°C° 0 mm 3 mps 733 mmHg 67%
    05:00 +7°C° 0 mm 3 mps 734 mmHg 62%
    06:00 +9°C° 0 mm 3 mps 734 mmHg 57%
    07:00 +10°C° 0 mm 4 mps 734 mmHg 52%
    08:00 +11°C° 0.1 mm 4 mps 734 mmHg 49%
    09:00 +12°C° 0.1 mm 5 mps 733 mmHg 45%
    10:00 +14°C° 0.1 mm 6 mps 733 mmHg 41%
    11:00 +14°C° 0.1 mm 6 mps 733 mmHg 41%
    12:00 +14°C° 0.1 mm 6 mps 733 mmHg 41%
    13:00 +14°C° 0.1 mm 6 mps 733 mmHg 40%
    14:00 +14°C° 0.2 mm 6 mps 732 mmHg 42%
    15:00 +13°C° 0.2 mm 6 mps 732 mmHg 43%
    16:00 +13°C° 0.2 mm 6 mps 732 mmHg 44%
    17:00 +12°C° 0.1 mm 5 mps 732 mmHg 49%
    18:00 +11°C° 0.1 mm 4 mps 732 mmHg 53%
    19:00 +10°C° 0.1 mm 3 mps 732 mmHg 57%
    20:00 +9°C° 0.1 mm 3 mps 732 mmHg 60%
    21:00 +8°C° 0.1 mm 3 mps 732 mmHg 63%
    22:00 +8°C° 0.1 mm 2 mps 732 mmHg 67%
    23:00 +7°C° 0 mm 2 mps 731 mmHg 68%

    Day after tomorrow, 25 April, Thursday

    Time Temperature Precipitation Wind Pressure Humidity
    00:00 +6°C° 0 mm 2 mps 731 mmHg 70%
    01:00 +6°C° 0 mm 2 mps 731 mmHg 71%
    02:00 +6°C° 0 mm 2 mps 731 mmHg 72%
    03:00 +5°C° 0 mm 2 mps 730 mmHg 72%
    04:00 +5°C° 0 mm 2 mps 730 mmHg 73%
    05:00 +5°C° 0.1 mm 3 mps 730 mmHg 68%
    06:00 +5°C° 0.1 mm 3 mps 730 mmHg 64%
    07:00 +6°C° 0.1 mm 4 mps 730 mmHg 60%
    08:00 +7°C° 0.2 mm 5 mps 729 mmHg 59%
    09:00 +8°C° 0.2 mm 6 mps 729 mmHg 59%
    10:00 +8°C° 0.2 mm 6 mps 729 mmHg 58%
    11:00 +8°C° 0.4 mm 6 mps 729 mmHg 61%
    12:00 +8°C° 0.4 mm 6 mps 729 mmHg 64%
    13:00 +7°C° 0.4 mm 6 mps 729 mmHg 67%
    14:00 +8°C° 0.4 mm 6 mps 729 mmHg 62%
    15:00 +8°C° 0.4 mm 6 mps 729 mmHg 57%
    16:00 +9°C° 0.4 mm 6 mps 730 mmHg 53%
    17:00 +7°C° 0.2 mm 6 mps 730 mmHg 58%
    18:00 +5°C° 0.2 mm 7 mps 731 mmHg 64%
    19:00 +4°C° 0.2 mm 7 mps 731 mmHg 70%
    20:00 +3°C° 0 mm 6 mps 731 mmHg 72%
    21:00 +2°C° 0 mm 6 mps 732 mmHg 75%
    22:00 +1°C° 0 mm 6 mps 732 mmHg 77%
    23:00 0°C° 0 mm 5 mps 733 mmHg 75%

    26 April, Friday

    Time Temperature Precipitation Wind Pressure Humidity
    00:00 0°C° 0 mm 5 mps 733 mmHg 73%
    01:00 -1°C° 0 mm 4 mps 733 mmHg 71%
    02:00 0°C° 0 mm 3 mps 733 mmHg 72%
    03:00 -1°C° 0 mm 3 mps 733 mmHg 72%
    04:00 -2°C° 0 mm 3 mps 734 mmHg 73%
    05:00 -1°C° 0 mm 3 mps 734 mmHg 64%
    06:00 0°C° 0 mm 3 mps 734 mmHg 56%
    07:00 +1°C° 0 mm 3 mps 735 mmHg 47%
    08:00 +3°C° 0 mm 2 mps 735 mmHg 43%
    09:00 +4°C° 0 mm 2 mps 735 mmHg 39%
    10:00 +5°C° 0 mm 2 mps 735 mmHg 35%
    11:00 +6°C° 0 mm 2 mps 734 mmHg 32%
    12:00 +7°C° 0 mm 2 mps 734 mmHg 30%
    13:00 +8°C° 0 mm 2 mps 734 mmHg 27%
    14:00 +8°C° 0 mm 3 mps 734 mmHg 27%
    15:00 +8°C° 0 mm 4 mps 733 mmHg 26%
    16:00 +9°C° 0 mm 5 mps 733 mmHg 26%
    17:00 +7°C° 0.4 mm 4 mps 733 mmHg 40%
    18:00 +6°C° 0.4 mm 4 mps 733 mmHg 53%
    19:00 +5°C° 0.4 mm 4 mps 733 mmHg 66%
    20:00 +4°C° 0.2 mm 4 mps 733 mmHg 67%
    21:00 +4°C° 0.2 mm 3 mps 734 mmHg 68%
    22:00 +4°C° 0.2 mm 3 mps 734 mmHg 69%
    23:00 +1°C° 0.1 mm 4 mps 734 mmHg 70%

    27 April, Saturday

    Time Temperature Precipitation Wind Pressure Humidity
    00:00 0°C° 0.1 mm 5 mps 734 mmHg 71%
    01:00 -2°C° 0.1 mm 6 mps 735 mmHg 73%
    02:00 -3°C° 0 mm 6 mps 735 mmHg 69%
    03:00 -4°C° 0 mm 5 mps 736 mmHg 66%
    04:00 -3°C° 0 mm 4 mps 737 mmHg 62%
    05:00 -3°C° 0 mm 4 mps 737 mmHg 55%
    06:00 -4°C° 0 mm 5 mps 738 mmHg 49%
    07:00 -2°C° 0 mm 5 mps 739 mmHg 42%
    08:00 -1°C° 0 mm 4 mps 739 mmHg 39%
    09:00 0°C° 0 mm 4 mps 739 mmHg 37%
    10:00 +1°C° 0 mm 4 mps 739 mmHg 34%
    11:00 +1°C° 0 mm 4 mps 739 mmHg 33%
    12:00 +3°C° 0 mm 4 mps 739 mmHg 31%
    13:00 +4°C° 0 mm 4 mps 739 mmHg 30%
    14:00 +5°C° 0 mm 4 mps 739 mmHg 30%
    15:00 +5°C° 0 mm 5 mps 739 mmHg 30%
    16:00 +6°C° 0 mm 5 mps 739 mmHg 30%
    17:00 +5°C° 0 mm 5 mps 738 mmHg 34%
    18:00 +5°C° 0 mm 5 mps 738 mmHg 37%
    19:00 +4°C° 0 mm 4 mps 738 mmHg 41%
    20:00 +3°C° 0 mm 5 mps 738 mmHg 43%
    21:00 +3°C° 0 mm 6 mps 738 mmHg 45%
    22:00 +3°C° 0 mm 6 mps 737 mmHg 46%
    23:00 +3°C° 0 mm 7 mps 737 mmHg 47%

    28 April, Sunday

    Time Temperature Precipitation Wind Pressure Humidity
    00:00 +3°C° 0 mm 7 mps 736 mmHg 48%
    01:00 +2°C° 0 mm 8 mps 736 mmHg 49%
    02:00 +2°C° 0 mm 8 mps 735 mmHg 49%
    03:00 +2°C° 0 mm 8 mps 735 mmHg 49%
    04:00 +3°C° 0 mm 9 mps 734 mmHg 50%
    05:00 +3°C° 0 mm 9 mps 734 mmHg 50%
    06:00 +5°C° 0 mm 9 mps 734 mmHg 50%
    07:00 +6°C° 0 mm 10 mps 734 mmHg 50%
    08:00 +8°C° 0 mm 11 mps 733 mmHg 47%
    09:00 +10°C° 0 mm 12 mps 733 mmHg 45%
    10:00 +12°C° 0 mm 13 mps 732 mmHg 43%
    11:00 +12°C° 0.1 mm 13 mps 732 mmHg 45%
    12:00 +12°C° 0.1 mm 13 mps 731 mmHg 48%
    13:00 +10°C° 0.1 mm 13 mps 730 mmHg 51%
    14:00 +12°C° 0 mm 11 mps 730 mmHg 53%
    15:00 +12°C° 0 mm 10 mps 729 mmHg 55%
    16:00 +13°C° 0 mm 9 mps 728 mmHg 57%
    17:00 +12°C° 2.3 mm 9 mps 728 mmHg 66%
    18:00 +11°C° 2.3 mm 9 mps 728 mmHg 74%
    19:00 +10°C° 2.3 mm 9 mps 727 mmHg 83%
    20:00 +10°C° 0.2 mm 8 mps 727 mmHg 83%
    21:00 +10°C° 0.2 mm 7 mps 728 mmHg 82%
    22:00 +10°C° 0.2 mm 6 mps 728 mmHg 82%
    23:00 +8°C° 0.8 mm 6 mps 728 mmHg 83%
    Show more